Time,TemperatureF,DewpointF,PressureIn,WindDirection,WindDirectionDegrees,WindSpeedMPH,WindSpeedGustMPH,Humidity,HourlyPrecipIn,Conditions,Clouds,dailyrainin,SoftwareType,DateUTC
2013-08-14 03:16:00,74.8,67.1,-100.00,NE,45,0.0,-999.0,77,-99.99,,,0.00,meteohub,2013-08-14 00:16:00,
2013-08-14 03:21:00,74.7,66.9,-100.00,NE,45,0.0,2.0,77,0.00,,,0.00,meteohub,2013-08-14 00:21:00,
2013-08-14 03:26:00,74.7,66.9,-100.00,North,0,0.0,2.0,77,0.00,,,0.00,meteohub,2013-08-14 00:26:00,
2013-08-14 03:31:00,74.7,66.9,-100.00,NE,45,1.0,3.0,77,0.00,,,0.00,meteohub,2013-08-14 00:31:00,
2013-08-14 03:36:00,74.7,66.9,-100.00,NE,45,0.0,3.0,77,0.00,,,0.00,meteohub,2013-08-14 00:36:00,
2013-08-14 03:41:00,74.7,66.9,-100.00,NE,45,3.0,4.0,77,0.00,,,0.00,meteohub,2013-08-14 00:41:00,
2013-08-14 03:46:00,74.7,66.9,-100.00,NE,45,3.0,4.0,77,0.00,,,0.00,meteohub,2013-08-14 00:46:00,
2013-08-14 03:51:00,74.7,66.9,-100.00,NE,45,0.0,4.0,77,0.00,,,0.00,meteohub,2013-08-14 00:51:00,
2013-08-14 03:56:00,74.7,66.9,-100.00,NE,45,0.0,3.0,77,0.00,,,0.00,meteohub,2013-08-14 00:56:00,
2013-08-14 04:01:00,74.5,66.7,-100.00,NE,45,0.0,3.0,77,0.00,,,0.00,meteohub,2013-08-14 01:01:00,
2013-08-14 04:06:00,74.5,66.7,-100.00,NE,45,0.0,3.0,77,0.00,,,0.00,meteohub,2013-08-14 01:06:00,
2013-08-14 04:12:00,74.5,66.7,-100.00,NE,45,3.0,4.0,77,0.00,,,0.00,meteohub,2013-08-14 01:12:00,
2013-08-14 04:17:00,74.5,66.7,-100.00,NE,45,0.0,4.0,77,0.00,,,0.00,meteohub,2013-08-14 01:17:00,
2013-08-14 04:22:00,74.3,66.9,-100.00,NE,45,2.0,4.0,78,0.00,,,0.00,meteohub,2013-08-14 01:22:00,
2013-08-14 04:27:00,74.3,66.9,-100.00,NE,45,0.0,3.0,78,0.00,,,0.00,meteohub,2013-08-14 01:27:00,
2013-08-14 04:32:00,74.3,66.9,-100.00,NE,45,0.0,2.0,78,0.00,,,0.00,meteohub,2013-08-14 01:32:00,
2013-08-14 04:37:00,74.3,66.9,-100.00,NE,45,2.0,3.0,78,0.00,,,0.00,meteohub,2013-08-14 01:37:00,
2013-08-14 04:42:00,74.1,67.1,-100.00,NE,45,1.0,3.0,79,0.00,,,0.00,meteohub,2013-08-14 01:42:00,
2013-08-14 04:47:00,74.1,67.1,-100.00,NE,45,2.0,3.0,79,0.00,,,0.00,meteohub,2013-08-14 01:47:00,
2013-08-14 04:52:00,74.1,67.1,-100.00,NE,45,1.0,4.0,79,0.00,,,0.00,meteohub,2013-08-14 01:52:00,
2013-08-14 04:57:00,74.1,67.1,-100.00,NE,45,1.0,4.0,79,0.00,,,0.00,meteohub,2013-08-14 01:57:00,
2013-08-14 05:02:00,74.1,67.1,-100.00,NE,45,2.0,3.0,79,0.00,,,0.00,meteohub,2013-08-14 02:02:00,
2013-08-14 05:07:00,74.1,67.1,-100.00,NE,45,3.0,3.0,79,0.00,,,0.00,meteohub,2013-08-14 02:07:00,
2013-08-14 05:12:00,73.9,67.1,-100.00,NE,45,2.0,3.0,79,0.00,,,0.00,meteohub,2013-08-14 02:12:00,
2013-08-14 05:18:00,73.9,67.5,-100.00,NE,45,2.0,4.0,80,0.00,,,0.00,meteohub,2013-08-14 02:18:00,
2013-08-14 05:23:00,73.9,67.5,-100.00,NE,45,1.0,4.0,80,0.00,,,0.00,meteohub,2013-08-14 02:23:00,
2013-08-14 05:28:00,73.9,67.5,-100.00,NE,45,2.0,4.0,80,0.00,,,0.00,meteohub,2013-08-14 02:28:00,
2013-08-14 05:33:00,73.9,67.5,-100.00,NE,45,2.0,4.0,80,0.00,,,0.00,meteohub,2013-08-14 02:33:00,
2013-08-14 05:38:00,73.9,67.5,-100.00,East,90,2.0,4.0,80,0.00,,,0.00,meteohub,2013-08-14 02:38:00,
2013-08-14 05:43:00,73.8,67.3,-100.00,NE,45,0.0,4.0,80,0.00,,,0.00,meteohub,2013-08-14 02:43:00,
2013-08-14 05:48:00,73.8,67.3,-100.00,NE,45,0.0,3.0,80,0.00,,,0.00,meteohub,2013-08-14 02:48:00,
2013-08-14 05:53:00,73.8,67.3,-100.00,NE,45,0.0,3.0,80,0.00,,,0.00,meteohub,2013-08-14 02:53:00,
2013-08-14 05:58:00,73.8,67.3,-100.00,NE,45,0.0,3.0,80,0.00,,,0.00,meteohub,2013-08-14 02:58:00,
2013-08-14 06:03:00,73.6,67.1,-100.00,NE,45,1.0,3.0,80,0.00,,,0.00,meteohub,2013-08-14 03:03:00,
2013-08-14 06:08:00,73.6,67.1,-100.00,NE,45,0.0,3.0,80,0.00,,,0.00,meteohub,2013-08-14 03:08:00,
2013-08-14 06:13:00,73.6,67.1,-100.00,NE,45,1.0,2.0,80,0.00,,,0.00,meteohub,2013-08-14 03:13:00,
2013-08-14 06:19:00,73.6,67.1,-100.00,NE,45,2.0,2.0,80,0.00,,,0.00,meteohub,2013-08-14 03:19:00,
2013-08-14 06:24:00,73.6,67.1,-100.00,NE,45,0.0,2.0,80,0.00,,,0.00,meteohub,2013-08-14 03:24:00,
2013-08-14 06:29:00,73.6,67.1,-100.00,NE,45,2.0,2.0,80,0.00,,,0.00,meteohub,2013-08-14 03:29:00,
2013-08-14 06:34:00,73.6,67.1,-100.00,NE,45,0.0,2.0,80,0.00,,,0.00,meteohub,2013-08-14 03:34:00,
2013-08-14 06:39:00,73.6,67.1,-100.00,NE,45,0.0,3.0,80,0.00,,,0.00,meteohub,2013-08-14 03:39:00,
2013-08-14 06:44:00,73.6,67.1,-100.00,NE,45,2.0,3.0,80,0.00,,,0.00,meteohub,2013-08-14 03:44:00,
2013-08-14 06:49:00,73.6,67.1,-100.00,NE,45,2.0,3.0,80,0.00,,,0.00,meteohub,2013-08-14 03:49:00,
2013-08-14 06:54:00,73.6,67.1,-100.00,NE,45,1.0,3.0,80,0.00,,,0.00,meteohub,2013-08-14 03:54:00,
2013-08-14 06:59:00,73.6,67.1,-100.00,NE,45,2.0,3.0,80,0.00,,,0.00,meteohub,2013-08-14 03:59:00,
2013-08-14 07:01:00,73.6,67.1,-100.00,NE,45,1.0,3.0,80,0.00,,,0.00,meteohub,2013-08-14 04:01:00,
2013-08-14 07:02:00,73.6,67.1,-100.00,NE,45,1.0,3.0,80,0.00,,,0.00,meteohub,2013-08-14 04:02:00,
2013-08-14 07:04:00,73.6,67.1,-100.00,NE,45,0.0,3.0,80,0.00,,,0.00,meteohub,2013-08-14 04:04:00,
2013-08-14 07:06:00,73.6,67.1,-100.00,NE,45,2.0,3.0,80,0.00,,,0.00,meteohub,2013-08-14 04:06:00,
2013-08-14 07:11:00,73.6,67.1,-100.00,North,0,0.0,3.0,80,0.00,,,0.00,meteohub,2013-08-14 04:11:00,
2013-08-14 07:16:00,73.6,67.1,-100.00,NE,45,0.0,3.0,80,0.00,,,0.00,meteohub,2013-08-14 04:16:00,
2013-08-14 07:21:00,73.6,67.1,-100.00,NE,45,2.0,4.0,80,0.00,,,0.00,meteohub,2013-08-14 04:21:00,
2013-08-14 07:27:00,73.6,67.1,-100.00,NE,45,1.0,4.0,80,0.00,,,0.00,meteohub,2013-08-14 04:27:00,
2013-08-14 07:32:00,73.8,67.3,-100.00,NE,45,1.0,3.0,80,0.00,,,0.00,meteohub,2013-08-14 04:32:00,
2013-08-14 07:37:00,73.8,67.3,-100.00,NE,45,0.0,4.0,80,0.00,,,0.00,meteohub,2013-08-14 04:37:00,
2013-08-14 07:42:00,73.9,67.5,-100.00,NNE,22,0.0,4.0,80,0.00,,,0.00,meteohub,2013-08-14 04:42:00,
2013-08-14 07:47:00,74.1,67.6,-100.00,NE,45,0.0,5.0,80,0.00,,,0.00,meteohub,2013-08-14 04:47:00,
2013-08-14 07:52:00,74.3,67.6,-100.00,NE,45,1.0,5.0,80,0.00,,,0.00,meteohub,2013-08-14 04:52:00,
2013-08-14 07:57:00,74.5,67.8,-100.00,NE,45,1.0,4.0,80,0.00,,,0.00,meteohub,2013-08-14 04:57:00,
2013-08-14 08:02:00,74.7,68.0,-100.00,NE,45,1.0,4.0,80,0.00,,,0.00,meteohub,2013-08-14 05:02:00,
2013-08-14 08:07:00,74.8,67.8,-100.00,NE,45,3.0,4.0,79,0.00,,,0.00,meteohub,2013-08-14 05:07:00,
2013-08-14 08:12:00,74.8,67.8,-100.00,NE,45,5.0,5.0,79,0.00,,,0.00,meteohub,2013-08-14 05:12:00,
2013-08-14 08:17:00,74.8,67.8,-100.00,North,0,1.0,5.0,79,0.00,,,0.00,meteohub,2013-08-14 05:17:00,
2013-08-14 08:22:00,75.0,68.0,-100.00,NE,45,2.0,5.0,79,0.00,,,0.00,meteohub,2013-08-14 05:22:00,
2013-08-14 08:27:00,75.2,67.8,-100.00,NE,45,0.0,5.0,78,0.00,,,0.00,meteohub,2013-08-14 05:27:00,
2013-08-14 08:33:00,75.2,67.8,-100.00,NE,45,2.0,6.0,78,0.00,,,0.00,meteohub,2013-08-14 05:33:00,
2013-08-14 08:38:00,75.4,68.0,-100.00,NE,45,0.0,6.0,78,0.00,,,0.00,meteohub,2013-08-14 05:38:00,
2013-08-14 08:43:00,75.7,68.4,-100.00,NE,45,0.0,6.0,78,0.00,,,0.00,meteohub,2013-08-14 05:43:00,
2013-08-14 08:48:00,75.9,68.2,-100.00,North,0,3.0,3.0,77,0.00,,,0.00,meteohub,2013-08-14 05:48:00,
2013-08-14 08:53:00,76.1,68.0,-100.00,NE,45,2.0,5.0,76,0.00,,,0.00,meteohub,2013-08-14 05:53:00,
2013-08-14 08:58:00,76.3,68.2,-100.00,North,0,2.0,5.0,76,0.00,,,0.00,meteohub,2013-08-14 05:58:00,
2013-08-14 09:03:00,76.8,68.4,-100.00,North,0,3.0,5.0,75,0.00,,,0.00,meteohub,2013-08-14 06:03:00,
2013-08-14 09:11:00,78.6,69.6,-100.00,NE,45,3.0,4.0,74,0.00,,,0.00,meteohub,2013-08-14 06:11:00,
2013-08-14 09:16:00,79.7,69.1,-100.00,East,90,3.0,6.0,70,0.00,,,0.00,meteohub,2013-08-14 06:16:00,
2013-08-14 09:22:00,80.6,67.3,-100.00,NE,45,2.0,4.0,64,0.00,,,0.00,meteohub,2013-08-14 06:22:00,
2013-08-14 09:27:00,81.1,63.5,-100.00,NE,45,3.0,4.0,55,0.00,,,0.00,meteohub,2013-08-14 06:27:00,
2013-08-14 09:32:00,81.9,64.6,-100.00,North,0,1.0,8.0,56,0.00,,,0.00,meteohub,2013-08-14 06:32:00,
2013-08-14 09:37:00,82.6,63.1,-100.00,North,0,0.0,8.0,52,0.00,,,0.00,meteohub,2013-08-14 06:37:00,
2013-08-14 09:42:00,83.3,62.1,-100.00,NE,45,0.0,6.0,49,0.00,,,0.00,meteohub,2013-08-14 06:42:00,
2013-08-14 09:47:00,84.0,61.0,-100.00,East,90,3.0,9.0,46,0.00,,,0.00,meteohub,2013-08-14 06:47:00,
2013-08-14 09:52:00,84.6,60.3,-100.00,East,90,2.0,9.0,44,0.00,,,0.00,meteohub,2013-08-14 06:52:00,
2013-08-14 09:57:00,85.3,61.0,-100.00,NE,45,4.0,5.0,44,0.00,,,0.00,meteohub,2013-08-14 06:57:00,
2013-08-14 10:02:00,86.0,58.8,-100.00,NE,45,3.0,4.0,40,0.00,,,0.00,meteohub,2013-08-14 07:02:00,
2013-08-14 10:07:00,86.0,58.8,-100.00,East,90,2.0,4.0,40,0.00,,,0.00,meteohub,2013-08-14 07:07:00,
2013-08-14 10:13:00,86.4,57.7,-100.00,North,0,2.0,4.0,38,0.00,,,0.00,meteohub,2013-08-14 07:13:00,
2013-08-14 10:18:00,87.1,59.9,-100.00,NNE,22,1.0,6.0,40,0.00,,,0.00,meteohub,2013-08-14 07:18:00,
2013-08-14 10:23:00,87.4,60.1,-100.00,North,0,0.0,6.0,40,0.00,,,0.00,meteohub,2013-08-14 07:23:00,
2013-08-14 10:28:00,87.1,55.2,-100.00,North,0,2.0,5.0,34,0.00,,,0.00,meteohub,2013-08-14 07:28:00,
2013-08-14 10:33:00,87.3,56.3,-100.00,NE,45,2.0,4.0,35,0.00,,,0.00,meteohub,2013-08-14 07:33:00,
2013-08-14 10:38:00,87.1,54.5,-100.00,NE,45,2.0,5.0,33,0.00,,,0.00,meteohub,2013-08-14 07:38:00,
2013-08-14 10:43:00,87.1,55.2,-100.00,NE,45,2.0,8.0,34,0.00,,,0.00,meteohub,2013-08-14 07:43:00,
2013-08-14 10:48:00,86.7,55.0,-100.00,North,0,1.0,8.0,34,0.00,,,0.00,meteohub,2013-08-14 07:48:00,
2013-08-14 10:53:00,86.0,53.6,-100.00,NE,45,4.0,8.0,33,0.00,,,0.00,meteohub,2013-08-14 07:53:00,
2013-08-14 10:58:00,85.5,53.1,-100.00,North,0,4.0,4.0,33,0.00,,,0.00,meteohub,2013-08-14 07:58:00,
2013-08-14 11:03:00,84.9,54.1,-100.00,NE,45,4.0,6.0,35,0.00,,,0.00,meteohub,2013-08-14 08:03:00,
2013-08-14 11:08:00,84.6,55.4,-100.00,NE,45,2.0,6.0,37,0.00,,,0.00,meteohub,2013-08-14 08:08:00,
2013-08-14 11:13:00,84.4,54.5,-100.00,NE,45,4.0,6.0,36,0.00,,,0.00,meteohub,2013-08-14 08:13:00,
2013-08-14 11:19:00,84.4,54.5,-100.00,North,0,0.0,9.0,36,0.00,,,0.00,meteohub,2013-08-14 08:19:00,
2013-08-14 11:24:00,84.2,52.7,-100.00,North,0,4.0,9.0,34,0.00,,,0.00,meteohub,2013-08-14 08:24:00,
2013-08-14 11:29:00,84.2,52.0,-100.00,NE,45,6.0,9.0,33,0.00,,,0.00,meteohub,2013-08-14 08:29:00,
2013-08-14 11:34:00,84.4,52.9,-100.00,NE,45,1.0,7.0,34,0.00,,,0.00,meteohub,2013-08-14 08:34:00,
2013-08-14 11:39:00,84.4,51.3,-100.00,NE,45,2.0,7.0,32,0.00,,,0.00,meteohub,2013-08-14 08:39:00,
2013-08-14 11:44:00,84.6,50.5,-100.00,North,0,3.0,7.0,31,0.00,,,0.00,meteohub,2013-08-14 08:44:00,
2013-08-14 11:49:00,84.6,50.5,-100.00,NE,45,3.0,7.0,31,0.00,,,0.00,meteohub,2013-08-14 08:49:00,
2013-08-14 11:54:00,84.7,50.7,-100.00,North,0,3.0,7.0,31,0.00,,,0.00,meteohub,2013-08-14 08:54:00,
2013-08-14 11:59:00,84.7,51.6,-100.00,North,0,4.0,7.0,32,0.00,,,0.00,meteohub,2013-08-14 08:59:00,
2013-08-14 12:04:00,84.7,51.6,-100.00,North,0,2.0,7.0,32,0.00,,,0.00,meteohub,2013-08-14 09:04:00,
2013-08-14 12:09:00,84.7,50.7,-100.00,NE,45,1.0,9.0,31,0.00,,,0.00,meteohub,2013-08-14 09:09:00,
2013-08-14 12:14:00,84.9,51.8,-100.00,NE,45,1.0,9.0,32,0.00,,,0.00,meteohub,2013-08-14 09:14:00,
2013-08-14 12:19:00,85.3,52.2,-100.00,NE,45,2.0,9.0,32,0.00,,,0.00,meteohub,2013-08-14 09:19:00,
2013-08-14 12:25:00,85.1,52.0,-100.00,NE,45,2.0,7.0,32,0.00,,,0.00,meteohub,2013-08-14 09:25:00,
2013-08-14 12:30:00,85.3,52.9,-100.00,North,0,2.0,8.0,33,0.00,,,0.00,meteohub,2013-08-14 09:30:00,
2013-08-14 12:35:00,85.1,52.7,-100.00,NE,45,6.0,9.0,33,0.00,,,0.00,meteohub,2013-08-14 09:35:00,
2013-08-14 12:40:00,84.9,53.4,-100.00,NE,45,2.0,9.0,34,0.00,,,0.00,meteohub,2013-08-14 09:40:00,
2013-08-14 12:45:00,84.7,53.2,-100.00,North,0,3.0,9.0,34,0.00,,,0.00,meteohub,2013-08-14 09:45:00,
2013-08-14 12:50:00,84.9,53.4,-100.00,North,0,2.0,8.0,34,0.00,,,0.00,meteohub,2013-08-14 09:50:00,
2013-08-14 12:55:00,84.9,52.5,-100.00,North,0,2.0,8.0,33,0.00,,,0.00,meteohub,2013-08-14 09:55:00,
2013-08-14 13:00:00,85.1,53.6,-100.00,North,0,3.0,8.0,34,0.00,,,0.00,meteohub,2013-08-14 10:00:00,
2013-08-14 13:05:00,84.9,53.4,-100.00,East,90,6.0,6.0,34,0.00,,,0.00,meteohub,2013-08-14 10:05:00,
2013-08-14 13:10:00,85.1,53.6,-100.00,NE,45,9.0,9.0,34,0.00,,,0.00,meteohub,2013-08-14 10:10:00,
2013-08-14 13:15:00,85.1,52.7,-100.00,North,0,1.0,9.0,33,0.00,,,0.00,meteohub,2013-08-14 10:15:00,
2013-08-14 13:20:00,85.3,52.2,-100.00,NE,45,3.0,9.0,32,0.00,,,0.00,meteohub,2013-08-14 10:20:00,
2013-08-14 13:25:00,85.3,52.9,-100.00,North,0,4.0,9.0,33,0.00,,,0.00,meteohub,2013-08-14 10:25:00,
2013-08-14 13:30:00,85.1,53.6,-100.00,NE,45,6.0,8.0,34,0.00,,,0.00,meteohub,2013-08-14 10:30:00,
2013-08-14 13:36:00,85.3,53.8,-100.00,NW,315,3.0,10.0,34,0.00,,,0.00,meteohub,2013-08-14 10:36:00,
2013-08-14 13:41:00,85.3,52.9,-100.00,NE,45,10.0,10.0,33,0.00,,,0.00,meteohub,2013-08-14 10:41:00,
2013-08-14 13:46:00,85.3,52.2,-100.00,NE,45,4.0,10.0,32,0.00,,,0.00,meteohub,2013-08-14 10:46:00,
2013-08-14 13:51:00,85.5,52.2,-100.00,NE,45,3.0,10.0,32,0.00,,,0.00,meteohub,2013-08-14 10:51:00,
2013-08-14 13:56:00,85.5,52.2,-100.00,SSW,202,0.0,10.0,32,0.00,,,0.00,meteohub,2013-08-14 10:56:00,
2013-08-14 14:01:00,85.5,52.2,-100.00,East,90,2.0,10.0,32,0.00,,,0.00,meteohub,2013-08-14 11:01:00,
2013-08-14 14:06:00,85.5,51.4,-100.00,NE,45,3.0,10.0,31,0.00,,,0.00,meteohub,2013-08-14 11:06:00,
2013-08-14 14:11:00,85.6,51.6,-100.00,North,0,2.0,10.0,31,0.00,,,0.00,meteohub,2013-08-14 11:11:00,
2013-08-14 14:16:00,85.6,51.6,-100.00,North,0,4.0,10.0,31,0.00,,,0.00,meteohub,2013-08-14 11:16:00,
2013-08-14 14:21:00,85.8,50.7,-100.00,North,0,3.0,10.0,30,0.00,,,0.00,meteohub,2013-08-14 11:21:00,
2013-08-14 14:26:00,86.0,50.0,-100.00,NE,45,2.0,8.0,29,0.00,,,0.00,meteohub,2013-08-14 11:26:00,
2013-08-14 14:31:00,86.2,50.2,-100.00,East,90,5.0,8.0,29,0.00,,,0.00,meteohub,2013-08-14 11:31:00,
2013-08-14 14:37:00,86.2,50.2,-100.00,NE,45,8.0,8.0,29,0.00,,,0.00,meteohub,2013-08-14 11:37:00,
2013-08-14 14:42:00,86.4,50.4,-100.00,NE,45,2.0,8.0,29,0.00,,,0.00,meteohub,2013-08-14 11:42:00,
2013-08-14 14:47:00,86.5,51.4,-100.00,North,0,5.0,8.0,30,0.00,,,0.00,meteohub,2013-08-14 11:47:00,
2013-08-14 14:52:00,86.5,50.5,-100.00,NE,45,7.0,8.0,29,0.00,,,0.00,meteohub,2013-08-14 11:52:00,
2013-08-14 14:57:00,86.7,50.7,-100.00,NNE,22,4.0,11.0,29,0.00,,,0.00,meteohub,2013-08-14 11:57:00,
2013-08-14 15:02:00,86.9,50.9,-100.00,NNW,338,2.0,12.0,29,0.00,,,0.00,meteohub,2013-08-14 12:02:00,
2013-08-14 15:07:00,87.1,50.9,-100.00,East,90,4.0,12.0,29,0.00,,,0.00,meteohub,2013-08-14 12:07:00,
2013-08-14 15:12:00,87.3,52.0,-100.00,North,0,0.0,12.0,30,0.00,,,0.00,meteohub,2013-08-14 12:12:00,
2013-08-14 15:17:00,87.4,53.1,-100.00,North,0,1.0,9.0,31,0.00,,,0.00,meteohub,2013-08-14 12:17:00,
2013-08-14 15:22:00,87.6,53.2,-100.00,North,0,3.0,9.0,31,0.00,,,0.00,meteohub,2013-08-14 12:22:00,
2013-08-14 15:27:00,88.2,52.9,-100.00,NE,45,4.0,9.0,30,0.00,,,0.00,meteohub,2013-08-14 12:27:00,
2013-08-14 15:32:00,87.6,53.2,-100.00,East,90,6.0,9.0,31,0.00,,,0.00,meteohub,2013-08-14 12:32:00,
2013-08-14 15:37:00,88.2,52.9,-100.00,North,0,3.0,10.0,30,0.00,,,0.00,meteohub,2013-08-14 12:37:00,
2013-08-14 15:43:00,88.5,53.1,-100.00,NE,45,2.0,10.0,30,0.00,,,0.00,meteohub,2013-08-14 12:43:00,
2013-08-14 15:48:00,89.1,53.6,-100.00,NW,315,3.0,10.0,30,0.00,,,0.00,meteohub,2013-08-14 12:48:00,
2013-08-14 15:53:00,89.4,52.0,-100.00,NE,45,6.0,11.0,28,0.00,,,0.00,meteohub,2013-08-14 12:53:00,
2013-08-14 15:58:00,89.4,52.0,-100.00,NE,45,5.0,11.0,28,0.00,,,0.00,meteohub,2013-08-14 12:58:00,
2013-08-14 16:03:00,89.6,51.3,-100.00,East,90,5.0,11.0,27,0.00,,,0.00,meteohub,2013-08-14 13:03:00,
2013-08-14 16:08:00,90.1,51.6,-100.00,NE,45,5.0,9.0,27,0.00,,,0.00,meteohub,2013-08-14 13:08:00,
2013-08-14 16:13:00,90.1,51.6,-100.00,East,90,3.0,7.0,27,0.00,,,0.00,meteohub,2013-08-14 13:13:00,
2013-08-14 16:18:00,90.0,48.4,-100.00,West,270,4.0,9.0,24,0.00,,,0.00,meteohub,2013-08-14 13:18:00,
2013-08-14 16:23:00,90.1,47.3,-100.00,NE,45,4.0,10.0,23,0.00,,,0.00,meteohub,2013-08-14 13:23:00,
2013-08-14 16:28:00,90.3,47.5,-100.00,North,0,5.0,10.0,23,0.00,,,0.00,meteohub,2013-08-14 13:28:00,
2013-08-14 16:33:00,90.5,46.4,-100.00,North,0,3.0,9.0,22,0.00,,,0.00,meteohub,2013-08-14 13:33:00,
2013-08-14 16:38:00,90.5,47.7,-100.00,North,0,2.0,9.0,23,0.00,,,0.00,meteohub,2013-08-14 13:38:00,
2013-08-14 16:44:00,90.3,45.1,-100.00,NE,45,3.0,7.0,21,0.00,,,0.00,meteohub,2013-08-14 13:44:00,
2013-08-14 16:49:00,91.2,47.1,-100.00,ENE,68,4.0,8.0,22,0.00,,,0.00,meteohub,2013-08-14 13:49:00,
2013-08-14 16:54:00,90.9,44.2,-100.00,NE,45,1.0,8.0,20,0.00,,,0.00,meteohub,2013-08-14 13:54:00,
2013-08-14 16:59:00,90.9,44.2,-100.00,East,90,7.0,8.0,20,0.00,,,0.00,meteohub,2013-08-14 13:59:00,
2013-08-14 17:04:00,90.5,42.6,-100.00,NE,45,5.0,9.0,19,0.00,,,0.00,meteohub,2013-08-14 14:04:00,
2013-08-14 17:09:00,90.0,43.5,-100.00,East,90,6.0,9.0,20,0.00,,,0.00,meteohub,2013-08-14 14:09:00,
2013-08-14 17:14:00,89.8,42.1,-100.00,SW,225,2.0,9.0,19,0.00,,,0.00,meteohub,2013-08-14 14:14:00,
2013-08-14 17:19:00,90.0,43.5,-100.00,North,0,2.0,8.0,20,0.00,,,0.00,meteohub,2013-08-14 14:19:00,
2013-08-14 17:24:00,89.4,43.0,-100.00,NE,45,3.0,10.0,20,0.00,,,0.00,meteohub,2013-08-14 14:24:00,
2013-08-14 17:29:00,89.2,43.0,-100.00,NE,45,3.0,10.0,20,0.00,,,0.00,meteohub,2013-08-14 14:29:00,
2013-08-14 17:34:00,89.1,42.8,-100.00,NNW,338,2.0,10.0,20,0.00,,,0.00,meteohub,2013-08-14 14:34:00,
2013-08-14 17:39:00,88.5,41.0,-100.00,East,90,4.0,8.0,19,0.00,,,0.00,meteohub,2013-08-14 14:39:00,
2013-08-14 17:45:00,88.2,42.1,-100.00,NW,315,1.0,7.0,20,0.00,,,0.00,meteohub,2013-08-14 14:45:00,
2013-08-14 17:50:00,87.8,41.7,-100.00,East,90,3.0,7.0,20,0.00,,,0.00,meteohub,2013-08-14 14:50:00,
2013-08-14 17:55:00,87.8,41.7,-100.00,North,0,6.0,9.0,20,0.00,,,0.00,meteohub,2013-08-14 14:55:00,
2013-08-14 18:00:00,87.3,39.9,-100.00,North,0,2.0,8.0,19,0.00,,,0.00,meteohub,2013-08-14 15:00:00,
2013-08-14 18:05:00,86.7,40.8,-100.00,NE,45,3.0,8.0,20,0.00,,,0.00,meteohub,2013-08-14 15:05:00,
2013-08-14 18:10:00,86.5,40.6,-100.00,NE,45,2.0,8.0,20,0.00,,,0.00,meteohub,2013-08-14 15:10:00,
2013-08-14 18:15:00,86.0,41.5,-100.00,NE,45,5.0,8.0,21,0.00,,,0.00,meteohub,2013-08-14 15:15:00,
2013-08-14 18:20:00,85.6,43.5,-100.00,NE,45,1.0,6.0,23,0.00,,,0.00,meteohub,2013-08-14 15:20:00,
2013-08-14 18:25:00,85.3,46.6,-100.00,North,0,3.0,6.0,26,0.00,,,0.00,meteohub,2013-08-14 15:25:00,
2013-08-14 18:30:00,84.9,48.2,-100.00,North,0,2.0,7.0,28,0.00,,,0.00,meteohub,2013-08-14 15:30:00,
2013-08-14 18:35:00,84.7,48.9,-100.00,NNE,22,1.0,7.0,29,0.00,,,0.00,meteohub,2013-08-14 15:35:00,
2013-08-14 18:40:00,84.6,48.7,-100.00,East,90,4.0,7.0,29,0.00,,,0.00,meteohub,2013-08-14 15:40:00,
2013-08-14 18:45:00,84.4,49.6,-100.00,NE,45,2.0,7.0,30,0.00,,,0.00,meteohub,2013-08-14 15:45:00,
2013-08-14 18:50:00,84.2,50.4,-100.00,NE,45,1.0,6.0,31,0.00,,,0.00,meteohub,2013-08-14 15:50:00,
2013-08-14 18:56:00,83.8,50.9,-100.00,East,90,3.0,6.0,32,0.00,,,0.00,meteohub,2013-08-14 15:56:00,
2013-08-14 19:01:00,83.7,51.4,-100.00,NE,45,2.0,6.0,33,0.00,,,0.00,meteohub,2013-08-14 16:01:00,
2013-08-14 19:06:00,83.3,52.9,-100.00,North,0,5.0,6.0,35,0.00,,,0.00,meteohub,2013-08-14 16:06:00,
2013-08-14 19:11:00,82.9,52.5,-100.00,NE,45,2.0,5.0,35,0.00,,,0.00,meteohub,2013-08-14 16:11:00,
2013-08-14 19:16:00,82.8,52.3,-100.00,NE,45,0.0,8.0,35,0.00,,,0.00,meteohub,2013-08-14 16:16:00,
2013-08-14 19:22:00,82.4,54.3,-100.00,NE,45,2.0,8.0,38,0.00,,,0.00,meteohub,2013-08-14 16:22:00,
2013-08-14 19:27:00,82.2,54.9,-100.00,North,0,2.0,8.0,39,0.00,,,0.00,meteohub,2013-08-14 16:27:00,
2013-08-14 19:32:00,82.0,55.4,-100.00,NE,45,5.0,7.0,40,0.00,,,0.00,meteohub,2013-08-14 16:32:00,
2013-08-14 19:37:00,81.9,55.9,-100.00,North,0,1.0,7.0,41,0.00,,,0.00,meteohub,2013-08-14 16:37:00,
2013-08-14 19:43:00,81.5,56.8,-100.00,NE,45,7.0,7.0,43,0.00,,,0.00,meteohub,2013-08-14 16:43:00,
2013-08-14 19:48:00,81.1,57.7,-100.00,NE,45,3.0,8.0,45,0.00,,,0.00,meteohub,2013-08-14 16:48:00,
2013-08-14 19:54:00,80.8,58.1,-100.00,NE,45,2.0,8.0,46,0.00,,,0.00,meteohub,2013-08-14 16:54:00,
2013-08-14 19:59:00,80.8,58.1,-100.00,North,0,2.0,9.0,46,0.00,,,0.00,meteohub,2013-08-14 16:59:00,
2013-08-14 20:04:00,80.4,59.0,-100.00,NE,45,3.0,9.0,48,0.00,,,0.00,meteohub,2013-08-14 17:04:00,
2013-08-14 20:09:00,80.2,59.9,-100.00,NE,45,9.0,9.0,50,0.08,,,0.08,meteohub,2013-08-14 17:09:00,
2013-08-14 20:14:00,80.1,60.3,-100.00,NE,45,2.0,6.0,51,0.08,,,0.08,meteohub,2013-08-14 17:14:00,
2013-08-14 20:19:00,79.9,60.6,-100.00,NE,45,2.0,9.0,52,0.08,,,0.08,meteohub,2013-08-14 17:19:00,
2013-08-14 20:25:00,79.7,61.0,-100.00,NE,45,2.0,10.0,53,0.08,,,0.08,meteohub,2013-08-14 17:25:00,
2013-08-14 20:30:00,79.5,61.3,-100.00,NE,45,3.0,10.0,54,0.08,,,0.08,meteohub,2013-08-14 17:30:00,
2013-08-14 20:35:00,79.5,61.9,-100.00,NE,45,3.0,9.0,55,0.08,,,0.08,meteohub,2013-08-14 17:35:00,
2013-08-14 20:41:00,79.3,61.7,-100.00,ENE,68,1.0,7.0,55,0.08,,,0.08,meteohub,2013-08-14 17:41:00,
2013-08-14 20:46:00,79.2,61.5,-100.00,North,0,0.0,7.0,55,0.08,,,0.08,meteohub,2013-08-14 17:46:00,
2013-08-14 20:52:00,79.2,62.6,-100.00,East,90,6.0,6.0,57,0.08,,,0.08,meteohub,2013-08-14 17:52:00,
2013-08-14 20:57:00,79.0,63.0,-100.00,NE,45,1.0,6.0,58,0.08,,,0.08,meteohub,2013-08-14 17:57:00,
2013-08-14 21:02:00,78.8,63.7,-100.00,East,90,1.0,6.0,60,0.08,,,0.08,meteohub,2013-08-14 18:02:00,
2013-08-14 21:07:00,78.6,64.6,-100.00,NE,45,1.0,6.0,62,0.00,,,0.08,meteohub,2013-08-14 18:07:00,
2013-08-14 21:13:00,78.6,64.9,-100.00,NE,45,2.0,7.0,63,0.00,,,0.08,meteohub,2013-08-14 18:13:00,
2013-08-14 21:18:00,78.4,65.3,-100.00,North,0,0.0,7.0,64,0.00,,,0.08,meteohub,2013-08-14 18:18:00,
2013-08-14 21:23:00,78.4,65.3,-100.00,NE,45,2.0,5.0,64,0.00,,,0.08,meteohub,2013-08-14 18:23:00,
2013-08-14 21:29:00,78.3,66.4,-100.00,NE,45,1.0,6.0,67,0.00,,,0.08,meteohub,2013-08-14 18:29:00,
2013-08-14 21:34:00,78.1,66.2,-100.00,NE,45,3.0,6.0,67,0.00,,,0.08,meteohub,2013-08-14 18:34:00,
2013-08-14 21:39:00,78.1,66.2,-100.00,NE,45,0.0,6.0,67,0.00,,,0.08,meteohub,2013-08-14 18:39:00,
2013-08-14 21:44:00,78.1,66.7,-100.00,NE,45,2.0,6.0,68,0.00,,,0.08,meteohub,2013-08-14 18:44:00,
2013-08-14 21:51:00,77.9,66.6,-100.00,NE,45,1.0,6.0,68,0.00,,,0.08,meteohub,2013-08-14 18:51:00,
2013-08-14 21:56:00,77.7,67.1,-100.00,NE,45,1.0,6.0,70,0.00,,,0.08,meteohub,2013-08-14 18:56:00,
2013-08-14 22:02:00,77.7,67.6,-100.00,NE,45,2.0,6.0,71,0.00,,,0.08,meteohub,2013-08-14 19:02:00,
2013-08-14 22:07:00,77.5,67.5,-100.00,NE,45,1.0,6.0,71,0.00,,,0.08,meteohub,2013-08-14 19:07:00,
2013-08-14 22:12:00,77.5,67.8,-100.00,NE,45,3.0,5.0,72,0.00,,,0.08,meteohub,2013-08-14 19:12:00,
2013-08-14 22:18:00,77.4,67.6,-100.00,NE,45,3.0,5.0,72,0.00,,,0.08,meteohub,2013-08-14 19:18:00,
2013-08-14 22:23:00,77.4,68.0,-100.00,North,0,1.0,6.0,73,0.00,,,0.08,meteohub,2013-08-14 19:23:00,
2013-08-14 22:32:00,77.2,68.2,-100.00,NE,45,2.0,5.0,74,0.00,,,0.08,meteohub,2013-08-14 19:32:00,
2013-08-14 22:37:00,77.2,68.7,-100.00,North,0,4.0,5.0,75,0.00,,,0.08,meteohub,2013-08-14 19:37:00,
2013-08-14 22:42:00,77.0,68.5,-100.00,NE,45,3.0,6.0,75,0.00,,,0.08,meteohub,2013-08-14 19:42:00,
2013-08-14 22:49:00,77.0,68.5,-100.00,NE,45,3.0,6.0,75,0.00,,,0.08,meteohub,2013-08-14 19:49:00,
2013-08-14 22:55:00,77.0,68.9,-100.00,NE,45,3.0,4.0,76,0.00,,,0.08,meteohub,2013-08-14 19:55:00,
2013-08-14 23:00:00,76.8,68.7,-100.00,NE,45,2.0,6.0,76,0.00,,,0.08,meteohub,2013-08-14 20:00:00,
2013-08-14 23:05:00,76.8,68.7,-100.00,North,0,2.0,6.0,76,0.00,,,0.08,meteohub,2013-08-14 20:05:00,
2013-08-14 23:11:00,76.8,68.7,-100.00,NE,45,2.0,5.0,76,0.00,,,0.08,meteohub,2013-08-14 20:11:00,
2013-08-14 23:16:00,76.6,68.9,-100.00,East,90,2.0,5.0,77,0.00,,,0.08,meteohub,2013-08-14 20:16:00,
2013-08-14 23:22:00,76.6,68.9,-100.00,NE,45,2.0,5.0,77,0.00,,,0.08,meteohub,2013-08-14 20:22:00,
2013-08-14 23:27:00,76.6,69.3,-100.00,North,0,2.0,5.0,78,0.00,,,0.08,meteohub,2013-08-14 20:27:00,
2013-08-14 23:32:00,76.6,69.3,-100.00,NE,45,4.0,5.0,78,0.00,,,0.08,meteohub,2013-08-14 20:32:00,
2013-08-14 23:37:00,76.5,69.1,-100.00,NE,45,2.0,6.0,78,0.00,,,0.08,meteohub,2013-08-14 20:37:00,
2013-08-14 23:45:00,76.5,69.1,-100.00,NE,45,0.0,6.0,78,0.00,,,0.08,meteohub,2013-08-14 20:45:00,
2013-08-14 23:51:00,76.3,68.9,-100.00,NE,45,4.0,4.0,78,0.00,,,0.08,meteohub,2013-08-14 20:51:00,
2013-08-14 23:56:00,76.3,68.9,-100.00,NE,45,3.0,4.0,78,0.00,,,0.08,meteohub,2013-08-14 20:56:00,